Location: Unspecified
(0.0000°N, 0.0000°E)
Time: 04:57:29
(UTC+00:00)

Explorer 7 - Pass Details

Date: 08 October 2020
Orbit: 484 x 678 km, 50.3° (Epoch: 28 October)

Event Time Altitude Azimuth Distance (km) Brightness Sun altitude
Rises 06:43:39 0° 311° (NW) 3,013 10.1 14.0°
Reaches altitude 10° 06:46:08 10° 304° (NW) 2,093 9.3 14.6°
Maximum altitude 06:50:42 42° 234° (SW) 938 7.8 15.7°
Drops below altitude 10° 06:55:10 10° 163° (SSE) 2,030 10.1 16.8°
Sets 06:57:32 0° 156° (SSE) 2,911 10.9 17.4°
